Location: Austin
(30.3000°N, 97.7500°W)
Time: 00:15:42
(UTC-05:00)

Spot 2 Rocket - Pass Details

Date: 06 May 2026
Orbit: 751 x 766 km, 98.3° (Epoch: 13 May)

Event Time Altitude Azimuth Distance (km) Brightness Sun altitude
Exits shadow 21:55:29 33° 80° (E) 1,255 4.2 -20.6°
Maximum altitude 21:55:49 33° 72° (ENE) 1,247 4.3 -20.6°
Drops below altitude 10° 22:00:15 10° 9° (N) 2,276 6.3 -21.4°
Sets 22:02:44 0° 0° (N) 3,204 7.2 -21.8°
